Lake Charles Regional, LA

2:47 AM CDT on October 19, 2017 (GMT -0500)
Lake Charles Regional

Weather History for KLCH - November, 2010

Change the Weather History Date:

Tuesday, November 16, 2010

  Actual Average Record
Temperature  
Mean Temperature 62 °F 61 °F  
Max Temperature 66 °F 71 °F 88 °F (1913)
Min Temperature 57 °F 51 °F 23 °F (1916)
Degree Days  
Heating Degree Days 3 6  
Month to date heating degree days 77 66  
Since 1 July heating degree days 90 102  
Cooling Degree Days 0 2  
Month to date cooling degree days 18 39  
Year to date cooling degree days 3250 2772  
Growing Degree Days 6 (Base 50)    
Moisture  
Dew Point 52 °F    
Average Humidity 69    
Maximum Humidity 93    
Minimum Humidity 45    
Precipitation  
Precipitation 0.00 in 0.13 in 1.58 in (1987)
Month to date precipitation 3.22 2.46  
Year to date precipitation 31.47 50.84  
Snow  
Snow 0.00 in 0.00 in 0.00 in ()
Month to date snowfall 0.0 0.0  
Since 1 July snowfall 0.0 0.0  
Since 1 September snowfall 0.0 0.0  
Snow Depth 0.00 in    
Sea Level Pressure  
Sea Level Pressure 29.82 in    
Wind  
Wind Speed 9 mph (WNW)    
Max Wind Speed 21 mph    
Max Gust Speed 26 mph    
Visibility 8 miles    
Events      
T = Trace of Precipitation, MM = Missing Value Source: NWS Daily Summary

Daily Weather History Graph

Daily Weather History Graph

Search for Another Location

Airport or City:

Trip Planner

Search our weather history database for the weather conditions in past years. The results will help you decide how hot, cold, wet, or windy it might be!

Date:

Astronomy

Nov. 16, 2010 Rise Set
Actual Time 6:39 AM CST 5:16 PM CST
Civil Twilight 6:13 AM CST 5:41 PM CST
Nautical Twilight 5:44 AM CST 6:10 PM CST
Astronomical Twilight 5:16 AM CST 6:38 PM CST
Moon 2:07 PM CST (11/16) 1:59 AM CST (11/16)
Length of Visible Light 11h 27m
Length of Day
10h 37m
Waxing Gibbous, 77% of the Moon is Illuminated
Nov 16
Waxing Gibbous
Nov 21
Full
Nov 28
Last Quarter
Dec 5
New
Dec 13
First Quarter

Hourly Weather History & Observations

Time (CST) Temp. Dew Point Humidity Pressure Visibility Wind Dir Wind Speed Gust Speed Precip Events Conditions
12:24 AM 60.8 °F 59.0 °F 94% 29.70 in 10.0 mi NW 6.9 mph - N/A   Overcast
12:41 AM 60.8 °F 57.2 °F 88% 29.70 in 10.0 mi NNW 5.8 mph - N/A   Overcast
12:53 AM 61.0 °F 57.9 °F 90% 29.72 in 10.0 mi NW 4.6 mph - N/A   Overcast
1:08 AM 60.8 °F 57.2 °F 88% 29.70 in 10.0 mi WNW 3.5 mph - N/A   Overcast
1:53 AM 60.1 °F 57.9 °F 93% 29.70 in 9.0 mi Calm Calm - N/A   Mostly Cloudy
2:05 AM 59.0 °F 57.2 °F 94% 29.67 in 8.0 mi SSW 4.6 mph - N/A   Scattered Clouds
2:12 AM 59.0 °F 57.2 °F 94% 29.67 in 6.0 mi WSW 3.5 mph - N/A   Mostly Cloudy
2:20 AM 60.8 °F 57.2 °F 88% 29.68 in 6.0 mi West 5.8 mph - N/A   Mostly Cloudy
2:53 AM 59.0 °F 57.0 °F 93% 29.70 in 6.0 mi Calm Calm - N/A   Scattered Clouds
3:31 AM 57.2 °F 55.4 °F 94% 29.68 in 2.5 mi SW 3.5 mph - N/A   Mostly Cloudy
3:40 AM 57.2 °F 57.2 °F 100% 29.68 in 4.0 mi SW 4.6 mph - N/A   Mostly Cloudy
3:53 AM 59.0 °F 57.9 °F 96% 29.70 in 5.0 mi WSW 5.8 mph - N/A   Overcast
4:26 AM 59.0 °F 57.2 °F 94% 29.71 in 2.0 mi WNW 6.9 mph - N/A   Overcast
4:53 AM 60.1 °F 57.9 °F 93% 29.76 in 4.0 mi West 8.1 mph - N/A   Overcast
5:00 AM 60.8 °F 57.2 °F 88% 29.74 in 5.0 mi West 8.1 mph - N/A   Overcast
5:28 AM 60.8 °F 57.2 °F 88% 29.75 in 9.0 mi WNW 5.8 mph - N/A   Overcast
5:53 AM 60.1 °F 55.9 °F 86% 29.80 in 10.0 mi West 9.2 mph - N/A   Overcast
6:45 AM 60.8 °F 55.4 °F 82% 29.78 in 10.0 mi WNW 8.1 mph - N/A   Overcast
6:53 AM 60.1 °F 55.0 °F 83% 29.81 in 10.0 mi WNW 8.1 mph - N/A   Mostly Cloudy
7:53 AM 61.0 °F 55.0 °F 81% 29.84 in 10.0 mi WNW 8.1 mph - N/A   Clear
8:53 AM 62.1 °F 54.0 °F 75% 29.87 in 10.0 mi WNW 12.7 mph 20.7 mph N/A   Mostly Cloudy
9:03 AM 62.6 °F 53.6 °F 72% 29.84 in 10.0 mi West 9.2 mph 19.6 mph N/A   Scattered Clouds
9:53 AM 64.0 °F 52.0 °F 65% 29.88 in 10.0 mi West 11.5 mph 21.9 mph N/A   Scattered Clouds
10:53 AM 64.9 °F 48.9 °F 56% 29.89 in 10.0 mi WNW 15.0 mph 23.0 mph N/A   Partly Cloudy
11:53 AM 66.0 °F 48.9 °F 54% 29.89 in 10.0 mi NW 16.1 mph 25.3 mph N/A   Scattered Clouds
12:53 PM 63.0 °F 48.0 °F 58% 29.89 in 10.0 mi NW 10.4 mph 19.6 mph N/A   Scattered Clouds
1:53 PM 64.9 °F 46.0 °F 50% 29.88 in 10.0 mi NNW 15.0 mph 24.2 mph N/A   Clear
2:53 PM 66.0 °F 45.0 °F 47% 29.89 in 10.0 mi NNW 12.7 mph 21.9 mph N/A   Clear
3:53 PM 64.9 °F 44.1 °F 47% 29.91 in 10.0 mi NNW 11.5 mph - N/A   Clear
4:53 PM 61.0 °F 44.1 °F 54% 29.93 in 10.0 mi NNW 6.9 mph - N/A   Clear
5:53 PM 55.0 °F 45.0 °F 69% 29.95 in 10.0 mi North 4.6 mph - N/A   Clear
6:53 PM 51.1 °F 45.0 °F 80% 29.98 in 10.0 mi NNW 3.5 mph - N/A   Clear
7:53 PM 48.9 °F 44.1 °F 83% 29.99 in 10.0 mi NNE 3.5 mph - N/A   Clear
8:53 PM 46.9 °F 44.1 °F 90% 30.01 in 10.0 mi Calm Calm - N/A   Clear
9:53 PM 45.0 °F 43.0 °F 93% 30.02 in 9.0 mi Calm Calm - N/A   Clear
10:53 PM 45.0 °F 42.1 °F 90% 30.03 in 10.0 mi Calm Calm - N/A   Clear
11:53 PM 44.1 °F 41.0 °F 89% 30.02 in 10.0 mi Calm Calm - N/A   Clear